Regional Weather Roundup
Issued by NWS

Home | Current Version | Previous Version | Graphics & Text | Print | Product List | Glossary On
Versions: 1 2 3 4 5 6 7 8 9 10 11 12 13 14 15 16 17 18 19 20 21 22 23 24 25 26 27 28 29 30 31 32 33 34 35 36 37 38 39 40 41 42 43 44 45 46 47 48 49 50
000
ASUS45 KTFX 230919
RWRMT
MONTANA HOURLY WEATHER ROUNDUP
NATIONAL WEATHER SERVICE GREAT FALLS MT
319 AM MDT WED JUL 23 2014

NOTE: "FAIR" INDICATES FEW OR NO CLOUDS BELOW 12000 FEET WITH NO
SIGNIFICANT WEATHER AND/OR OBSTRUCTIONS TO VISIBILITY.

* THESE STATIONS ARE NOT UNDER NWS QUALITY CONTROL. THEY DO NOT
   REPORT WEATHER SUCH AS PRECIPITATION OR FOG.

MTZ001>007-043-231000-
WEST OF THE DIVIDE
CITY           SKY/WX    TMP DP  RH WIND       PRES   REMARKS
KALISPELL      CLOUDY    61  55  81 N5        30.14R
MISSOULA       MOCLDY    66  50  56 W9        30.16R
BUTTE          MOCLDY    57  48  72 SW3       30.21F
MULLAN PASS    LGT RAIN  48  48 100 NW7       30.30F
* ESSEX        N/A       56  52  87 SE3        N/A
* LINCOLN      N/A       55  53  93 NW3        N/A
* LOOKOUT PASS N/A       54  53  96 N10G23     N/A
* POLSON       N/A       57  52  83 SE2        N/A
* RONAN APT    MOCLDY    55  52  90 N/A        N/A
* SEELEY LAKE  N/A       51  48  90 NE1        N/A
* THOMP F APT  CLOUDY    70  38  31 NE5G10     N/A
* YAAK HILL    N/A       59  56  90 N/A        N/A
$$

MTZ008-052>055-231000-
SOUTHWEST MONTANA
CITY           SKY/WX    TMP DP  RH WIND       PRES   REMARKS
BOZEMAN        MOCLDY    55  48  77 CALM      30.18S
DILLON         MOCLDY    59  48  67 NE8       30.17F
W YELLOWSTONE  MOCLDY    45  43  93 CALM      30.31F
* THREE FORKS  PTCLDY    59  59 100 N/A        N/A
* BOULDER HILL N/A       57  44  62 N2         N/A
* MONIDA PASS  N/A       56  37  49 SW4        N/A
* RAYNOLDS PAS N/A       53  35  51 S2         N/A
* WHITEHALL    N/A       66  52  61 E5G11      N/A
* WISE RIVER   N/A       53  47  80 S5         N/A
$$

MTZ009>010-012-014-046-048-049-054-231000-
EAST SLOPES AND CENTRAL MONTANA
CITY           SKY/WX    TMP DP  RH WIND       PRES   REMARKS
CUT BANK       MOCLDY    55  52  90 NW10      30.17F
GREAT FALLS    PTCLDY    63  55  75 N6        30.13F
HELENA         PTCLDY    61  55  81 NW6       30.15F
MALMSTROM AFB  PTCLDY    63  55  75 S9        30.13F
* CONRAD       PTCLDY    54  54 100 N/A        N/A
* DEARBORN     N/A       59  57  93 SW2        N/A
* EAST GLACIER N/A       53  48  83 N4         N/A
* MONARCH      N/A       63  46  54 S13        N/A
* ROGERS PASS  N/A       58  49  72 NW3        N/A
* SAINT MARY   N/A       47  46  96 S2         N/A
* SWEET GRASS  N/A       64  57  78 S13        N/A
* WHITE SULPH  N/A       60  53  78 NE4G9      N/A
$$

MTZ011-013-016-021-035-040-045-047-050-051-231000-
NORTH CENTRAL MONTANA
CITY           SKY/WX    TMP DP  RH WIND       PRES   REMARKS
HAVRE          PTCLDY    63  52  68 NE12      30.12F
LEWISTOWN      MOCLDY    61  54  78 SE5       30.22F
* FORT BENTON  PTCLDY    72  54  53 E9        30.11F
* CHESTER      N/A       62  54  75 NE2        N/A
* DENTON       N/A       63  55  75 S10        N/A
* GEYSER       N/A       59  56  90 NE6        N/A
* JUDITH GAP   N/A       58  56  93 N/A        N/A
* LOMA         N/A       68  53  59 NE12       N/A
$$

MTZ017>020-022>027-061-062-231000-
NORTHEAST MONTANA
CITY           SKY/WX    TMP DP  RH WIND       PRES   REMARKS
GLASGOW        MOCLDY    64  57  78 E10       30.18F
GLENDIVE       CLEAR     63  61  93 NE7       30.22F
JORDAN         PTCLDY    63  54  73 CALM      30.20F
SIDNEY         CLEAR     63  59  87 CALM      30.23F
WOLF POINT     PTCLDY    63  57  81 E6        30.21F
* BEAVER HILL  N/A       62  59  90 N/A        N/A
* CIRCLE       N/A       61  56  84 N/A        N/A
* LINDSAY DVD  N/A       60  59  97 NE6        N/A
* NAVAJO       N/A       59  58  97 N/A        N/A
$$

MTZ028>042-056>058-231000-
SOUTHCENTRAL AND SOUTHEAST MONTANA
CITY           SKY/WX    TMP DP  RH WIND       PRES   REMARKS
BAKER          CLEAR     61  57  87 E8        30.24R
BILLINGS       CLEAR     63  57  81 NW6       30.20F
LIVINGSTON     MOCLDY    59  52  78 CALM      30.23F
MILES CITY     CLEAR     63  61  93 NE5       30.20S
* LAUREL APT   CLEAR     63  55  75 NW5        N/A
* ROUNDUP APT  PTCLDY    63  55  75 N/A        N/A
* ALZADA       N/A       61  60  97 NE2        N/A
* HYSHAM       N/A       62  59  90 SE1        N/A
* LAME DEER    N/A       63  57  81 S9         N/A
* REED POINT   N/A       56  54  93 N/A        N/A
* ROSCOE HILL  N/A       61  42  50 SW8        N/A
$$

REGIONAL REPORTS...DAKOTAS
CITY           SKY/WX    TMP DP  RH WIND       PRES   REMARKS
WILLISTON      CLEAR     66  63  90 SE3       30.22F
DICKINSON      PTCLDY    61  57  87 E5        30.23F
CROSBY         N/A       63  63 100 E9        30.25F
TIOGA          CLEAR     59  59 100 E8        30.28S
WATFORD CITY   CLEAR     63  63 100 E7        30.22S
BISMARCK       MOCLDY    64  63  97 E5        30.25S
GRAND FORKS    MOCLDY    59  57  93 N7        30.26S
FARGO          PTCLDY    57  55  93 CALM      30.25S
BUFFALO SD     PTCLDY    61  57  87 E9        30.16F
RAPID CITY     TSTM      64  55  73 SW14      30.26F
$$

REGIONAL REPORTS...WYOMING/IDAHO/WASHINGTON
CITY           SKY/WX    TMP DP  RH WIND       PRES   REMARKS
GILLETTE       CLEAR     63  55  75 CALM      30.30F
SHERIDAN       CLEAR     63  54  73 S3        30.25F
CODY           CLEAR     66  46  49 W3        30.25F
YELLOWSTONE LA PTCLDY    45  41  86 W3        30.45F
SALMON         CLOUDY    64  52  65 N16G36    30.16R
MULLAN PASS    LGT RAIN  48  48 100 NW7       30.30S
SAND POINT     CLOUDY    59  59 100 N6        30.15R
SPOKANE        CLOUDY    64  54  70 CALM      30.09F
$$

REGIONAL REPORTS...ALBERTA
CITY           SKY/WX    TMP DP  RH WIND       PRES   REMARKS
CALGARY        FAIR      55  46  72 S8        30.10F
LETHBRIDGE     FAIR      57  54  90 S6        30.13F
EDMONTON       PTCLDY    59  57  93 SE9       30.03F
WATERTON GATE  N/A       54  45  72 S5         N/A
CARDSTON       N/A       59  52  78 S3         N/A
MILK RIVER     N/A       55  52  90 W7         N/A
$$

REGIONAL REPORTS...SASKATCHEWAN
CITY           SKY/WX    TMP DP  RH WIND       PRES   REMARKS
SWIFT CURRENT  MOCLDY    63  57  81 SE12      30.20F
REGINA         FAIR      63  54  73 E13       30.26F
VAL MARIE      N/A       57  54  90 E5         N/A
ASSINIBOIA     N/A       59  55  87 E7         N/A
CORONACH       N/A       59  55  87 SE3        N/A

$$



USA.gov is the U.S. government's official web portal to all federal, state and local government web resources and services.